Location: Chaumontel
(49.1247°N, 2.4324°E)
Time: 13:53:34
(UTC+00:00)

COSMOS 2428 - Pass Details

Date: 11 August 2024
Orbit: 842 x 857 km, 70.9° (Epoch: 14 September)

Event Time Altitude Azimuth Distance (km) Brightness Sun altitude
Exits shadow 03:41:34 - 260° (W) 2,673 4.7 -8.7°
Reaches altitude 10° 03:42:14 10° 264° (W) 2,474 4.6 -8.6°
Maximum altitude 03:46:47 24° 318° (NW) 1,691 4.2 -8.0°
Drops below altitude 10° 03:51:22 10° 11° (NNE) 2,492 5.9 -7.4°
Sets 03:54:20 0° 26° (NNE) 3,434 7.0 -7.0°
